Powrót do katalogu

STARLINK-3301

AktywnyŁącznośćVLEO
NORAD 50169·PAYLOAD·🇺🇸 United States

Wystrzelony Dec 18, 2021 z Vandenberg Space Force Base

Loading…

Następne Przeloty (najbliższe 24 godziny)

TLE

ŚwieżeSource: CelesTrak SupGP

Epoka: Sep 14, 2026, 22:17 UTC

1 50169C 21125P   26257.92895833  .00016837  00000+0  49768-3 0  2579
2 50169  53.1591 104.0106 0001337  82.8619  34.8388 15.34367206    19

Śledź STARLINK-3301 w czasie rzeczywistym z AllMySat

Download on the App Store